20050501,000008,1414641,34.155140,-119.460475,14.780,33.306,0.680,1.029
20050501,000038,1414671,34.154643,-119.458675,14.787,33.297,0.667,1.021
20050501,000108,1414701,34.154143,-119.456871,14.806,33.282,0.661,1.031
20050501,000138,1414731,34.153668,-119.455031,14.824,33.271,0.680,1.159
20050501,000208,1414761,34.153165,-119.453238,14.838,33.265,0.686,1.181
20050501,000238,1414791,34.152662,-119.451443,14.843,33.269,0.699,1.115
20050501,000308,1414821,34.152155,-119.449643,14.821,33.294,0.738,1.169
20050501,000338,1414851,34.151642,-119.447835,14.801,33.319,0.757,1.184
20050501,000408,1414881,34.151137,-119.446043,14.776,33.347,0.770,1.212
20050501,000438,1414911,34.150622,-119.444276,14.771,33.351,0.789,1.281
20050501,000508,1414941,34.150123,-119.442523,14.769,33.350,0.796,1.371
20050501,000538,1414971,34.149625,-119.440773,14.766,33.349,0.802,1.496
20050501,000608,1415001,34.149135,-119.439041,14.760,33.348,0.828,1.421
20050501,000638,1415031,34.148632,-119.437305,14.740,33.360,0.873,1.562
20050501,000708,1415061,34.148130,-119.435566,14.697,33.392,0.880,1.556
20050501,000738,1415091,34.147628,-119.433838,14.661,33.414,0.893,1.493
20050501,000808,1415121,34.147132,-119.432108,14.661,33.405,0.893,1.486
20050501,000838,1415151,34.146633,-119.430358,14.607,33.436,0.925,1.569
20050501,000908,1415182,34.146133,-119.428621,14.589,33.435,0.984,1.639
20050501,000938,1415211,34.145617,-119.426888,14.578,33.429,0.945,1.565
20050501,001008,1415241,34.145117,-119.425138,14.586,33.405,0.971,1.732
20050501,001038,1415271,34.144617,-119.423403,14.590,33.385,0.938,1.626
20050501,001108,1415301,34.144117,-119.421650,14.603,33.363,0.938,1.560
20050501,001138,1415331,34.143618,-119.419911,14.619,33.341,1.023,1.752
20050501,001209,1415362,34.143132,-119.418153,14.639,33.318,1.148,2.110
20050501,001238,1415391,34.142633,-119.416382,14.657,33.301,1.313,2.478
20050501,001309,1415422,34.142152,-119.414620,14.671,33.289,1.512,2.808
20050501,001338,1415451,34.141675,-119.412865,14.685,33.283,1.726,3.344
20050501,001408,1415481,34.141197,-119.411090,14.700,33.277,1.833,3.676
20050501,001438,1415511,34.140707,-119.409315,14.732,33.261,1.639,3.106
20050501,001509,1415542,34.140218,-119.407540,14.778,33.233,1.773,3.491
20050501,001538,1415571,34.139727,-119.405757,14.806,33.223,1.773,3.474
20050501,001608,1415601,34.139255,-119.403960,14.831,33.217,1.860,3.618
20050501,001638,1415631,34.138777,-119.402165,14.863,33.209,1.854,3.560
20050501,001708,1415661,34.138307,-119.400365,14.878,33.217,1.833,3.482
20050501,001738,1415691,34.137827,-119.398583,14.888,33.230,1.780,3.350
20050501,001808,1415721,34.137340,-119.396800,14.895,33.246,1.766,3.333
20050501,001838,1415751,34.136860,-119.395027,14.905,33.256,1.719,3.164
20050501,001909,1415782,34.136397,-119.393230,14.913,33.265,1.713,3.138
20050501,001939,1415812,34.135937,-119.391453,14.923,33.272,1.579,2.808
20050501,002009,1415842,34.135467,-119.389667,14.931,33.277,1.579,2.823
20050501,002039,1415872,34.135010,-119.387873,14.935,33.285,1.479,2.599
20050501,002108,1415901,34.134525,-119.386083,14.938,33.292,1.512,2.700
20050501,002139,1415932,34.134053,-119.384290,14.937,33.301,1.405,2.485
20050501,002208,1415961,34.133592,-119.382522,14.944,33.302,1.379,2.495
20050501,002238,1415991,34.133132,-119.380732,14.959,33.294,1.346,2.393
20050501,002308,1416021,34.132650,-119.378933,14.971,33.289,1.352,2.432
20050501,002338,1416051,34.132188,-119.377130,15.020,33.254,1.319,2.322
20050501,002408,1416081,34.131708,-119.375318,15.061,33.229,1.379,2.430
20050501,002439,1416112,34.131223,-119.373503,15.082,33.222,1.346,2.370
20050501,002508,1416141,34.130752,-119.371693,15.136,33.192,1.313,2.262
20050501,002538,1416171,34.130273,-119.369897,15.171,33.182,1.346,2.369
20050501,002608,1416201,34.129807,-119.368110,15.199,33.181,1.299,2.356
20050501,002638,1416231,34.129332,-119.366308,15.242,33.168,1.273,2.235
20050501,002708,1416261,34.128862,-119.364508,15.260,33.175,1.214,2.183
20050501,002738,1416291,34.128395,-119.362710,15.289,33.175,1.141,2.080
20050501,002808,1416321,34.127925,-119.360927,15.327,33.170,1.280,2.333
20050501,002838,1416351,34.127455,-119.359120,15.343,33.181,1.326,2.402
20050501,002908,1416381,34.126970,-119.357313,15.355,33.195,1.366,2.591
20050501,002938,1416411,34.126492,-119.355510,15.372,33.204,1.412,2.749
20050501,003008,1416441,34.126038,-119.353693,15.379,33.220,1.498,2.828
20050501,003039,1416472,34.125573,-119.351882,15.374,33.242,1.612,3.071
20050501,003108,1416501,34.125065,-119.350103,15.350,33.276,1.706,3.455
20050501,003138,1416532,34.124552,-119.348330,15.311,33.322,1.874,4.152
20050501,003208,1416561,34.124045,-119.346548,15.279,33.357,1.928,4.014
20050501,003238,1416591,34.123548,-119.344765,15.255,33.377,1.988,4.117
20050501,003308,1416621,34.123025,-119.342978,15.198,33.421,2.103,4.422
20050501,003338,1416651,34.122530,-119.341190,15.201,33.408,2.253,4.808
20050501,003408,1416681,34.122040,-119.339408,15.125,33.458,2.293,4.893
20050501,003438,1416711,34.121538,-119.337642,15.093,33.468,2.375,5.115
20050501,003509,1416742,34.121030,-119.335865,15.028,33.501,2.320,4.930
20050501,003538,1416771,34.120523,-119.334097,14.981,33.516,2.436,5.286
20050501,003608,1416801,34.120032,-119.332330,14.954,33.509,2.621,5.890
20050501,003638,1416831,34.119540,-119.330565,14.950,33.482,2.696,6.152
20050501,003708,1416861,34.119062,-119.328828,14.928,33.471,2.689,6.147
20050501,003739,1416892,34.118582,-119.327070,14.882,33.482,2.703,6.223
20050501,003808,1416921,34.118093,-119.325312,14.898,33.444,2.648,6.072
20050501,003838,1416951,34.117607,-119.323552,14.853,33.457,2.621,5.979
20050501,003908,1416981,34.117113,-119.321797,14.808,33.467,2.635,6.076
20050501,003939,1417012,34.116630,-119.320043,14.754,33.486,2.580,6.072
20050501,004008,1417041,34.116138,-119.318297,14.715,33.495,2.566,6.866
20050501,004038,1417071,34.115657,-119.316547,14.678,33.501,2.348,6.080
20050501,004108,1417101,34.115172,-119.314823,14.589,33.547,2.239,6.377
20050501,004138,1417131,34.114710,-119.313070,14.614,33.497,2.049,5.850
20050501,004208,1417161,34.114230,-119.311320,14.581,33.491,1.928,5.328
20050501,004238,1417191,34.113755,-119.309550,14.572,33.468,1.820,4.724
20050501,004309,1417222,34.113283,-119.307783,14.579,33.436,1.605,4.029
20050501,004338,1417251,34.112812,-119.306005,14.584,33.412,1.465,3.357
20050501,004408,1417281,34.112328,-119.304245,14.599,33.384,1.352,3.285
20050501,004438,1417311,34.111838,-119.302493,14.615,33.359,1.273,3.029
20050501,004508,1417341,34.111355,-119.300725,14.631,33.338,1.273,2.970
20050501,004538,1417371,34.110867,-119.298960,14.639,33.328,1.128,2.557
20050501,004608,1417401,34.110378,-119.297192,14.643,33.324,1.187,2.701
20050501,004638,1417431,34.109873,-119.295405,14.639,33.330,1.286,3.037
20050501,004709,1417462,34.109390,-119.293615,14.616,33.351,1.313,3.038
20050501,004738,1417491,34.108902,-119.291840,14.621,33.349,1.306,2.983
20050501,004808,1417521,34.108427,-119.290063,14.587,33.374,1.306,2.994
20050501,004838,1417551,34.107940,-119.288288,14.552,33.398,1.299,3.015
20050501,004908,1417581,34.107455,-119.286493,14.546,33.396,1.253,2.432
20050501,004939,1417612,34.106972,-119.284698,14.545,33.387,1.286,2.443
20050501,005008,1417641,34.106480,-119.282915,14.542,33.381,1.240,2.440
20050501,005038,1417671,34.105997,-119.281143,14.524,33.388,1.181,2.179
20050501,005108,1417701,34.105510,-119.279362,14.507,33.395,1.154,2.064
20050501,005138,1417731,34.105023,-119.277582,14.478,33.412,1.141,2.225
20050501,005208,1417761,34.104523,-119.275780,14.505,33.381,1.128,2.264
20050501,005238,1417791,34.104033,-119.273973,14.522,33.357,1.095,2.140
20050501,005308,1417821,34.103532,-119.272163,14.587,33.294,1.095,1.943
20050501,005338,1417851,34.103032,-119.270362,14.611,33.269,1.010,1.731
20050501,005408,1417882,34.102532,-119.268562,14.664,33.228,0.991,1.757
20050501,005439,1417912,34.102028,-119.266768,14.724,33.190,0.971,1.691
20050501,005509,1417942,34.101532,-119.264962,14.778,33.161,0.964,1.601
20050501,005539,1417972,34.101050,-119.263152,14.838,33.135,0.938,1.568
20050501,005608,1418001,34.100557,-119.261338,14.863,33.141,0.958,1.619
20050501,005639,1418032,34.100063,-119.259525,14.879,33.157,0.945,1.555
20050501,005708,1418061,34.099573,-119.257715,14.898,33.172,0.912,1.435
20050501,005738,1418091,34.099085,-119.255902,14.903,33.196,0.964,1.522
20050501,005809,1418122,34.098605,-119.254125,14.904,33.221,0.971,1.530
20050501,005838,1418151,34.098120,-119.252335,14.895,33.249,0.952,1.490
20050501,005908,1418181,34.097625,-119.250540,14.893,33.271,0.964,1.517
20050501,005938,1418211,34.097140,-119.248745,14.881,33.295,0.991,1.568
20050501,010008,1418241,34.096678,-119.247005,14.881,33.305,0.997,1.582
20050501,010038,1418271,34.096193,-119.245198,14.873,33.318,0.938,1.461
20050501,010109,1418302,34.095715,-119.243380,14.867,33.328,0.977,1.536
20050501,010138,1418331,34.095237,-119.241577,14.855,33.340,0.997,1.576
20050501,010208,1418361,34.094752,-119.239775,14.847,33.349,1.036,1.652
20050501,010238,1418391,34.094282,-119.237957,14.829,33.362,1.082,1.746
20050501,010308,1418421,34.093798,-119.236152,14.813,33.373,1.095,1.774
20050501,010339,1418452,34.093320,-119.234340,14.792,33.386,1.108,1.803
20050501,010408,1418481,34.092838,-119.232537,14.777,33.394,1.128,1.845
20050501,010439,1418512,34.092352,-119.230722,14.762,33.399,1.115,1.819
20050501,010508,1418541,34.091885,-119.228915,14.770,33.383,1.089,1.764
20050501,010539,1418572,34.091385,-119.227052,14.778,33.367,1.082,1.751
20050501,010609,1418602,34.090910,-119.225315,14.790,33.348,1.063,1.711
20050501,010638,1418631,34.090418,-119.223515,14.810,33.326,1.063,1.711
20050501,010709,1418662,34.089908,-119.221648,14.833,33.305,0.977,1.539
20050501,010738,1418691,34.089447,-119.219922,14.870,33.275,1.043,1.668
20050501,010809,1418722,34.088957,-119.218077,14.899,33.256,1.063,1.706
20050501,010839,1418752,34.088480,-119.216275,14.932,33.238,1.082,1.744
20050501,010909,1418782,34.087983,-119.214468,14.980,33.210,1.056,1.690
20050501,010939,1418812,34.087483,-119.212745,14.998,33.209,1.082,1.746
20050501,011009,1418842,34.086948,-119.210903,15.051,33.185,1.082,1.747
20050501,011039,1418872,34.086448,-119.209168,15.065,33.196,1.075,1.736
20050501,011108,1418901,34.085933,-119.207370,15.107,33.184,1.082,1.749
20050501,011138,1418931,34.085408,-119.205588,15.136,33.183,1.056,1.698
20050501,011209,1418962,34.084867,-119.203723,15.181,33.171,1.017,1.619
20050501,011239,1418992,34.084372,-119.201978,15.195,33.185,0.991,1.566
20050501,011309,1419022,34.083837,-119.200158,15.228,33.179,1.069,1.714
20050501,011339,1419052,34.083292,-119.198290,15.251,33.184,1.030,1.624
20050501,011410,1419083,34.082762,-119.196482,15.297,33.169,1.010,1.579
20050501,011439,1419112,34.082228,-119.194662,15.349,33.150,1.010,1.574
20050501,011509,1419142,34.081687,-119.192852,15.389,33.143,0.991,1.530
20050501,011540,1419173,34.081115,-119.190983,15.460,33.121,1.004,1.551
20050501,011610,1419203,34.080608,-119.189233,15.484,33.121,0.991,1.521
20050501,011640,1419233,34.080080,-119.187362,15.538,33.116,0.991,1.519
20050501,011710,1419263,34.079550,-119.185553,15.563,33.126,1.004,1.544
20050501,011740,1419293,34.079015,-119.183745,15.581,33.140,0.997,1.531
20050501,011810,1419323,34.078502,-119.181933,15.611,33.143,1.017,1.570
20050501,011841,1419354,34.077965,-119.180123,15.643,33.143,0.971,1.484
20050501,011910,1419383,34.077425,-119.178287,15.655,33.158,0.997,1.538
20050501,011941,1419414,34.076878,-119.176465,15.664,33.172,0.991,1.534
20050501,012011,1419444,34.076350,-119.174640,15.659,33.197,1.049,1.656
20050501,012040,1419473,34.075798,-119.172807,15.640,33.231,1.004,1.555
20050501,012110,1419503,34.075262,-119.170963,15.629,33.254,1.095,1.733
20050501,012140,1419533,34.074747,-119.169135,15.598,33.288,1.102,1.750
20050501,012210,1419563,34.074210,-119.167308,15.561,33.323,1.121,1.824
20050501,012240,1419593,34.073697,-119.165472,15.542,33.338,1.135,1.974
20050501,012310,1419623,34.073167,-119.163642,15.528,33.343,1.115,1.988
20050501,012340,1419653,34.072643,-119.161837,15.526,33.336,1.121,1.996
20050501,012410,1419683,34.072122,-119.160000,15.513,33.333,1.141,1.994
20050501,012440,1419713,34.071595,-119.158190,15.494,33.340,1.154,2.003
20050501,012510,1419743,34.071105,-119.156403,15.472,33.347,1.220,2.111
20050501,012540,1419773,34.070590,-119.154642,15.435,33.366,1.148,1.903
20050501,012611,1419804,34.070070,-119.152883,15.409,33.376,1.386,2.436
20050501,012640,1419833,34.069562,-119.151125,15.337,33.422,1.419,2.578
20050501,012710,1419863,34.069060,-119.149362,15.310,33.429,1.672,3.285
20050501,012740,1419893,34.068555,-119.147587,15.213,33.489,2.103,4.375
20050501,012810,1419923,34.068033,-119.145847,15.091,33.565,2.464,5.326
20050501,012840,1419953,34.067513,-119.144127,14.910,33.677,2.744,6.190
20050501,012910,1419983,34.066978,-119.142423,14.787,33.725,2.847,6.533
20050501,012940,1420013,34.066453,-119.140695,14.673,33.754,3.081,7.440
20050501,013011,1420044,34.065943,-119.138962,14.603,33.733,2.930,6.893
20050501,013040,1420073,34.065425,-119.137233,14.560,33.697,2.861,6.550
20050501,013111,1420104,34.064893,-119.135515,14.524,33.655,2.902,6.628
20050501,013140,1420133,34.064385,-119.133793,14.531,33.585,2.341,4.830
20050501,013211,1420164,34.063872,-119.132048,14.526,33.529,2.888,6.550
20050501,013240,1420193,34.063367,-119.130292,14.512,33.491,2.293,4.682
20050501,013310,1420223,34.062845,-119.128547,14.534,33.435,2.341,4.829
20050501,013340,1420253,34.062335,-119.126803,14.527,33.409,2.778,6.199
20050501,013410,1420283,34.061845,-119.125027,14.544,33.370,2.635,5.767
20050501,013440,1420313,34.061338,-119.123263,14.559,33.341,3.081,7.517
20050501,013510,1420343,34.060817,-119.121510,14.590,33.302,3.178,8.181
20050501,013540,1420373,34.060278,-119.119765,14.639,33.256,3.489,9.675
20050501,013610,1420403,34.059760,-119.118013,14.690,33.212,3.489,9.837
20050501,013640,1420433,34.059240,-119.116243,14.730,33.185,3.587,10.196
20050501,013710,1420463,34.058720,-119.114477,14.807,33.140,3.622,9.788
20050501,013740,1420493,34.058235,-119.112737,14.858,33.126,3.698,10.007
20050501,013810,1420523,34.057728,-119.110997,14.916,33.113,3.768,10.728
20050501,013840,1420553,34.057227,-119.109252,14.952,33.117,3.824,11.382
20050501,013910,1420583,34.056720,-119.107508,14.978,33.131,3.102,8.300
20050501,013940,1420613,34.056208,-119.105790,14.999,33.149,4.187,12.438
20050501,014010,1420643,34.055715,-119.104057,15.000,33.179,5.059,15.535
20050501,014040,1420673,34.055222,-119.102350,14.919,33.272,5.697,18.577
20050501,014110,1420703,34.054723,-119.100640,14.827,33.369,6.024,20.397
20050501,014141,1420734,34.054210,-119.098903,14.756,33.436,6.124,20.824
20050501,014210,1420763,34.053700,-119.097155,14.687,33.484,6.196,20.989
20050501,014240,1420793,34.053193,-119.095418,14.680,33.473,6.217,21.020
20050501,014311,1420824,34.052688,-119.093668,14.653,33.471,6.331,21.575
20050501,014340,1420853,34.052187,-119.091920,14.664,33.438,6.288,21.268
20050501,014410,1420883,34.051678,-119.090187,14.670,33.413,6.089,20.126
20050501,014440,1420913,34.051168,-119.088447,14.671,33.389,5.960,19.395
20050501,014511,1420944,34.050670,-119.086702,14.689,33.360,5.868,18.867
20050501,014540,1420973,34.050152,-119.084963,14.704,33.335,5.804,18.503
20050501,014611,1421004,34.049638,-119.083230,14.720,33.314,5.676,17.823
20050501,014640,1421033,34.049135,-119.081485,14.732,33.297,5.584,17.339
20050501,014710,1421063,34.048632,-119.079737,14.756,33.277,5.498,16.899
20050501,014740,1421093,34.048118,-119.077988,14.777,33.264,5.420,16.497
20050501,014811,1421124,34.047617,-119.076250,14.800,33.254,5.364,16.200
20050501,014840,1421153,34.047117,-119.074527,14.819,33.247,5.017,14.549
20050501,014911,1421184,34.046598,-119.072782,14.826,33.253,4.777,13.450
20050501,014940,1421213,34.046095,-119.071043,14.830,33.266,4.488,12.186
20050501,015010,1421243,34.045598,-119.069303,14.833,33.278,4.222,11.072
20050501,015040,1421273,34.045082,-119.067568,14.816,33.309,3.830,9.522
20050501,015110,1421303,34.044608,-119.065832,14.789,33.342,3.608,8.699
20050501,015140,1421333,34.044115,-119.064107,14.740,33.391,3.413,8.020
20050501,015210,1421363,34.043620,-119.062372,14.684,33.440,3.441,8.099
20050501,015241,1421394,34.043128,-119.060642,14.637,33.476,3.351,7.753
20050501,015310,1421423,34.042620,-119.058923,14.604,33.493,3.344,7.735
20050501,015340,1421453,34.042143,-119.057197,14.579,33.499,3.074,6.822
20050501,015410,1421483,34.041657,-119.055467,14.530,33.520,3.178,7.110
20050501,015440,1421513,34.041177,-119.053742,14.516,33.509,3.282,7.435
20050501,015510,1421543,34.040688,-119.052015,14.518,33.488,3.330,7.592
20050501,015540,1421573,34.040205,-119.050310,14.515,33.471,3.365,7.740
20050501,015610,1421603,34.039725,-119.048607,14.501,33.463,3.316,7.605
20050501,015640,1421633,34.039442,-119.046860,14.500,33.445,3.344,7.698
20050501,015710,1421663,34.039237,-119.045082,14.489,33.442,3.455,8.037
20050501,015740,1421693,34.039015,-119.043298,14.456,33.457,3.476,8.107
20050501,015810,1421723,34.038793,-119.041495,14.441,33.458,3.420,7.875
20050501,015840,1421753,34.038578,-119.039697,14.434,33.451,3.399,7.801
20050501,015910,1421783,34.038347,-119.037898,14.438,33.437,3.392,7.802
20050501,015940,1421813,34.038115,-119.036093,14.451,33.414,3.385,7.718
20050501,020010,1421843,34.037875,-119.034243,14.477,33.384,3.261,7.319
20050501,020040,1421873,34.037663,-119.032433,14.507,33.351,3.068,6.640
20050501,020110,1421903,34.037433,-119.030618,14.550,33.312,3.109,6.773
20050501,020140,1421933,34.037203,-119.028822,14.578,33.293,2.287,4.322
20050501,020210,1421963,34.036972,-119.027023,14.624,33.262,3.033,6.526
20050501,020240,1421993,34.036750,-119.025233,14.656,33.248,2.902,6.110
20050501,020310,1422023,34.036537,-119.023445,14.698,33.232,2.833,5.895
20050501,020340,1422053,34.036307,-119.021660,14.712,33.244,2.662,5.374
20050501,020410,1422083,34.036097,-119.019892,14.708,33.270,2.491,4.875
20050501,020440,1422113,34.035882,-119.018127,14.686,33.313,2.532,4.987
20050501,020510,1422143,34.035655,-119.016368,14.616,33.389,2.525,4.965
20050501,020540,1422173,34.035430,-119.014600,14.557,33.451,2.559,5.058
20050501,020610,1422203,34.035200,-119.012830,14.479,33.521,2.511,4.918
20050501,020640,1422233,34.034958,-119.011058,14.445,33.541,2.443,4.722
20050501,020710,1422263,34.034730,-119.009268,14.428,33.536,2.395,4.591
20050501,020741,1422294,34.034505,-119.007485,14.354,33.576,2.320,4.381
20050501,020810,1422323,34.034280,-119.005728,14.375,33.533,2.307,4.344
20050501,020840,1422353,34.034063,-119.003972,14.328,33.547,2.287,4.290
20050501,020910,1422383,34.033837,-119.002177,14.329,33.524,2.293,4.301
20050501,020940,1422413,34.033593,-119.000380,14.313,33.518,2.219,4.098
20050501,021010,1422443,34.033377,-118.998596,14.299,33.508,2.171,3.972
20050501,021040,1422473,34.033152,-118.996811,14.291,33.497,2.273,4.236
20050501,021110,1422503,34.032897,-118.995031,14.283,33.488,2.314,4.343
20050501,021140,1422533,34.032665,-118.993246,14.274,33.480,2.362,4.468
20050501,021210,1422563,34.032425,-118.991451,14.280,33.458,2.416,4.616
20050501,021240,1422593,34.032187,-118.989668,14.264,33.459,2.464,4.747
20050501,021311,1422624,34.031938,-118.987831,14.270,33.440,2.131,3.863
20050501,021341,1422654,34.031708,-118.986100,14.283,33.419,1.934,3.373
20050501,021411,1422684,34.031462,-118.984305,14.298,33.399,2.600,5.167
20050501,021441,1422714,34.031223,-118.982508,14.326,33.372,2.436,4.689
20050501,021510,1422743,34.030985,-118.980686,14.343,33.358,2.423,4.655
20050501,021540,1422773,34.030733,-118.978871,14.374,33.333,2.436,4.694
20050501,021610,1422803,34.030495,-118.977056,14.405,33.314,2.368,4.507
20050501,021640,1422833,34.030250,-118.975246,14.431,33.302,2.389,4.546
20050501,021710,1422863,34.030008,-118.973428,14.491,33.268,2.375,4.491
20050501,021740,1422893,34.029763,-118.971601,14.517,33.265,2.375,4.495
20050501,021810,1422923,34.029525,-118.969766,14.541,33.265,2.382,4.537
20050501,021841,1422954,34.029258,-118.967871,14.591,33.244,2.457,4.707
20050501,021910,1422983,34.029028,-118.966103,14.645,33.225,2.368,4.465
20050501,021941,1423014,34.028787,-118.964205,14.682,33.219,2.273,4.196
20050501,022010,1423043,34.028555,-118.962455,14.717,33.221,1.901,3.256
20050501,022040,1423073,34.028325,-118.960635,14.737,33.232,2.029,3.564
20050501,022111,1423104,34.028082,-118.958736,14.787,33.220,2.212,4.021
20050501,022140,1423133,34.027845,-118.956980,14.815,33.227,2.273,4.176
20050501,022211,1423164,34.027600,-118.955081,14.848,33.229,2.253,4.120
20050501,022240,1423193,34.027387,-118.953335,14.884,33.225,2.436,4.606
20050501,022311,1423224,34.027173,-118.951543,14.889,33.249,2.429,4.584
20050501,022341,1423254,34.026925,-118.949663,14.921,33.249,2.518,4.825
20050501,022411,1423284,34.026693,-118.947858,14.936,33.261,2.580,4.994
20050501,022441,1423314,34.026470,-118.946056,14.958,33.267,2.545,4.895
20050501,022511,1423344,34.026248,-118.944243,14.967,33.282,2.724,5.399
20050501,022542,1423375,34.026047,-118.942436,14.966,33.304,2.498,4.758
20050501,022611,1423404,34.025812,-118.940653,14.950,33.334,1.995,3.450
20050501,022641,1423434,34.025592,-118.938850,14.913,33.381,1.975,3.400
20050501,022711,1423464,34.025372,-118.937046,14.900,33.402,2.362,4.382
20050501,022742,1423495,34.025158,-118.935226,14.870,33.431,2.009,3.478
20050501,022811,1423524,34.024938,-118.933398,14.838,33.458,2.002,3.460
20050501,022841,1423554,34.024712,-118.931583,14.825,33.464,2.266,4.123
20050501,022911,1423584,34.024488,-118.929768,14.816,33.465,2.015,3.490
20050501,022941,1423614,34.024275,-118.927953,14.807,33.463,2.260,4.103
20050501,023011,1423644,34.024040,-118.926130,14.808,33.452,2.307,4.225
20050501,023041,1423674,34.023823,-118.924286,14.818,33.434,2.395,4.458
20050501,023111,1423704,34.023602,-118.922453,14.836,33.412,2.443,4.584
20050501,023141,1423734,34.023377,-118.920600,14.847,33.394,2.423,4.528
20050501,023211,1423764,34.023152,-118.918771,14.863,33.379,2.416,4.507
20050501,023241,1423794,34.022923,-118.916945,14.883,33.363,2.416,4.505
20050501,023311,1423824,34.022693,-118.915110,14.903,33.350,2.436,4.558
20050501,023341,1423854,34.022457,-118.913275,14.911,33.348,2.573,4.932
20050501,023411,1423884,34.022232,-118.911430,14.923,33.346,2.416,4.500
20050501,023441,1423914,34.022000,-118.909596,14.930,33.348,2.450,4.591
20050501,023512,1423945,34.021765,-118.907763,14.933,33.355,2.525,4.794
20050501,023541,1423974,34.021535,-118.905915,14.934,33.362,2.621,5.059
20050501,023611,1424004,34.021310,-118.904055,14.935,33.368,2.710,5.310
20050501,023641,1424034,34.021070,-118.902220,14.938,33.370,2.355,4.330
20050501,023711,1424064,34.020840,-118.900355,14.946,33.369,2.348,4.310
20050501,023741,1424094,34.020617,-118.898515,14.952,33.369,2.395,4.435
20050501,023811,1424124,34.020390,-118.896681,14.963,33.365,2.280,4.130
20050501,023841,1424154,34.020167,-118.894836,14.972,33.362,2.287,4.147
20050501,023911,1424184,34.019933,-118.892981,14.981,33.359,2.076,3.614
20050501,023941,1424214,34.019705,-118.891150,14.988,33.358,1.995,3.415
20050501,024011,1424244,34.019482,-118.889315,14.992,33.361,1.887,3.159
20050501,024041,1424274,34.019240,-118.887458,14.992,33.368,1.988,3.398
20050501,024112,1424305,34.019015,-118.885600,14.995,33.371,1.995,3.413
20050501,024141,1424334,34.018785,-118.883745,14.984,33.385,2.096,3.660
20050501,024211,1424364,34.018558,-118.881915,14.981,33.392,2.002,3.428
20050501,024241,1424394,34.018338,-118.880065,14.971,33.404,1.934,3.266
20050501,024311,1424424,34.018128,-118.878213,14.961,33.413,1.988,3.394
20050501,024341,1424454,34.017907,-118.876365,14.966,33.410,2.015,3.460